Location: Gleizolles
(44.4833°N, 6.7667°E)
Time: 00:25:20
(UTC+00:00)

Vanguard 2 Rocket - Pass Details

Date: 16 June 2024
Orbit: 555 x 3302 km, 32.9° (Epoch: 24 July)

Event Time Altitude Azimuth Distance (km) Brightness Sun altitude
Rises 04:27:35 0° 241° (WSW) 7,279 10.8 5.2°
Reaches altitude 10° 04:32:53 10° 237° (WSW) 6,181 10.5 6.1°
Maximum altitude 04:50:27 48° 171° (S) 3,140 9.6 8.9°
Drops below altitude 10° 05:02:03 10° 102° (ESE) 4,212 11.4 10.8°
Sets 05:04:55 0° 96° (E) 4,887 11.8 11.3°
